SCP
0 0 0 0 0 0 0 0 0 0 0 0 0 0 0 0 0 0 0 0 0 0 0 0 0 0 0 0 0 0 0 0 0 0 0 0 0 0 0 0 0 0 0 0
0 0 0 0 0 0 0 0 0 0 0 0 0 0 0 0 0 0 0 0 0 0 0 0 0 0 0 0 0 0 0 0 0 0 0 0 0 0 0 0 0 0 0 0
0 0 0 0 0 0 0 0 0 0 0 0 0 0 0 0 0 0 0 0 0 0 0 0 0 0 0 0 0 0 0 0 0 0 0 0 0 0 0 0 0 0 0 0
0 0 0 0 0 0 0 0 0 0 0 0 0 -0 0 0 0 0 0 0 0 0 0 0 0 0 0 0 0 0 0 0 0 0 0 0 0 0 0 0 0 0 0 0
0 0 0 0 0 0 0 0 0 0 0 0 0 0 -0 0 0 0 0 0 0 0 0 0 0 0 0 0 0 0 0 0 0 0 0 0 0 0 0 0 0 0 0 0
0 0 0 0 0 0 0 0 0 0 0 0 0 0 -0 0 0 0 0 0 0 0 0 0 0 0 0 0 0 0 0 0 0 0 0 0 0 0 0 0 0 0 0 0
0 0 0 0 0 0 0 0 0 0 0 0 0 0 0 0 0 0 0 0 0 0 0 0 0 0 0 0 0 0 0 0 0 0 0 0 0 0 0 0 0 0 0 0
0 0 0 0 0 0 0 0 0 0 0 0 0 0 0 0 0 0 0 0 0 0 0 0 0 0 0 0 0 0 0 0 0 0 0 0 0 0 0 0 0 0 0 0
0 0 0 0 0 0 0 0 0 0 0 0 0 0 0 0 0 0 0 0 0 0 0 0 0 0 0 0 0 0 0 0 0 0 0 0 0 0 0 0 0 0 0 0
0 0 0 0 0 0 0 0 0 0 0 0 0 0 0 0 0 0 0 0 0 0 0 0 0 0 0 0 0 0 0 0 0 0 0 0 0 0 0 0 0 0 0 0
0 0 0 0 0 0 0 0 0 0 0 0 0 0 0 0 0 0 0 0 0 0 0 0 0 0 0 0 0 0 0 0 0 0 0 0 0 0 0 0 0 0 0 0
0 0 0 0 0 0 0 0 0 0 0 0 0 0 0 0 0 0 0 0 0 0 0 0 0 0 0 0 0 0 0 0 0 0 0 0 0 0 0 0 0 0 0 0
0 0 0 0 0 0 0 0 0 0 0 0 0 0 0 0 0 0 0 0 0 0 0 0 0 0 0 0 0 0 0 0 0 0 0 0 0 0 0 0 0 0 0 0
0 0 0 0 -0 0 0 0 0 0 0 0 0 0 0 0 0 0 0 0 0 0 0 0 0 0 0 0 0 0 0 0 0 0 0 0 0 0 0 0 0 0 0 0
0 0 0 0 0 0 0 0 0 0 0 0 0 0 0 0 0 0 0 0 0 0 0 0 0 0 0 0 0 0 0 0 0 0 0 0 0 0 0 0 0 0 0 0
0 -0 0 0 0 -0 0 0 0 0 0 0 0 0 0 0 0 0 0 0 0 0 0 0 0 0 0 0 0 0 0 0 0 0 0 0 0 0 0 0 0 0 0 0
0 0 0 0 0 -0 0 0 0 0 0 0 0 0 0 0 0 0 0 0 0 0 0 0 0 0 0 0 0 0 0 0 0 0 0 0 0 0 0 0 0 0 0 0
0 0 0 0 0 0 0 0 0 0 0 0 0 0 0 0 0 0 0 0 0 0 0 0 0 0 0 0 0 0 0 0 0 0 0 0 0 0 0 0 0 0 0 0
0 0 -0 0 -0 0 -0 0 0 0 0 0 0 0 0 0 0 0 0 0 0 0 0 0 0 0 0 0 0 0 0 0 0 0 0 0 0 0 0 0 0 0 0 0
0 0 0 -0 -0 0 -0 -0 0 0 0 0 0 0 0 0 0 0 0 0 0 0 0 0 0 0 0 0 0 0 0 0 0 0 0 0 0 0 0 0 0 0 0 0
-0 -0 0 0 -0 0 0 -0 0 0 0 0 0 0 0 0 0 0 0 0 0 0 0 0 0 0 0 0 0 0 0 0 0 0 0 0 0 0 0 0 0 0 0 0
-0 -0 0 0 -0 0 0 -0 0 0 0 0 0 0 0 0 0 0 0 0 0 0 0 0 0 0 0 0 0 0 0 0 0 0 0 0 0 0 0 0 -0 -0 -0 -0
0 -0 -0 -0 0 0 0 0 0 0 -0 0 0 0 0 0 0 0 0 0 0 0 0 0 0 0 0 0 0 0 0 0 0 0 0 0 0 -0 -0 -0 -0 -0 -0 -0
0 -0 -0 -0 0 0 0 0 0 0 0 0 0 0 0 0 0 0 0 0 0 0 0 0 0 0 0 0 0 0 0 0 0 0 0 -0 -0 -0 -0 0 0 0 0 0
0 0 0 -0 -0 0 0 0 0 0 0 0 0 0 0 0 0 0 0 0 0 0 0 0 0 0 0 0 0 0 0 0 -0 -0 -0 -0 0 0 0 0 0 0 0 0
0 0 0 0 -0 -0 0 0 0 0 0 0 0 0 0 0 -0 -0 0 0 0 -0 -0 -0 -0 0 0 -0 0 -0 0 0 0 -0 0 0 0 0 0 0 0 0 0 0
Wind_Speed_500mb
7 11 28 26 21 19 5 9 25 6 13 13 31 21 34 28 43 48 49 34 25 41 52 53 51 55 76 72 70 67 62 57 53 51 50 48 52 49 48 47 44 42 40 38
8 25 19 14 17 25 26 11 12 12 8 10 7 28 28 31 35 53 56 45 30 33 37 38 51 56 63 78 75 68 70 66 60 57 52 53 52 52 49 47 47 46 45 42
15 11 20 24 28 23 29 35 8 6 9 6 4 13 18 20 41 44 58 53 42 33 24 22 28 58 60 65 77 77 69 64 64 62 57 58 59 60 57 54 54 51 48 45
16 24 30 24 22 27 26 17 19 20 5 7 9 19 22 31 26 37 57 60 58 46 36 25 19 40 64 61 60 69 74 67 63 65 65 63 60 63 65 60 56 53 46 47
13 6 12 23 37 21 13 12 27 21 7 7 9 5 11 22 40 44 37 52 74 73 66 45 27 27 57 67 63 57 62 64 61 60 57 58 58 54 54 59 63 60 54 52
13 8 6 5 15 33 10 16 5 11 15 13 29 17 9 13 19 25 26 51 68 56 48 42 33 29 45 58 59 59 59 58 54 55 46 47 49 52 53 49 47 50 53 54
8 32 17 14 7 9 21 11 11 16 15 29 27 13 29 4 6 10 28 48 58 60 56 51 44 34 37 48 52 50 47 43 45 44 37 42 47 50 51 53 54 56 60 62
6 12 22 21 26 7 22 16 4 11 20 38 12 23 22 14 13 6 17 36 44 59 62 56 50 45 36 32 31 32 27 24 27 30 33 37 40 44 48 51 53 52 50 52
7 12 2 15 12 22 11 22 30 7 4 9 11 29 12 5 7 10 8 27 47 61 60 60 54 50 52 44 35 27 22 22 24 24 27 30 33 40 46 49 53 56 57 58
8 10 11 2 25 27 14 13 11 13 6 9 9 17 24 13 12 8 12 25 39 63 66 59 56 55 51 45 42 36 31 20 15 15 16 17 19 24 26 29 35 41 45 47
4 4 7 4 9 15 10 25 12 8 8 8 6 10 5 13 12 21 18 36 46 52 55 52 46 38 33 29 27 24 22 24 21 16 13 13 12 13 18 20 21 21 22 25
8 7 8 18 4 16 12 28 29 9 9 6 3 8 8 14 12 23 32 42 49 58 59 55 50 46 41 36 33 30 26 19 18 14 11 13 14 12 10 10 11 13 17 22
13 4 6 13 3 3 10 10 10 19 8 8 13 9 12 16 23 32 40 52 58 59 60 56 53 50 47 42 36 30 28 23 20 17 12 9 7 7 9 12 15 17 20 25
21 7 13 10 8 3 7 5 2 5 14 12 8 9 4 10 28 32 42 53 57 55 54 52 48 45 41 36 31 26 23 19 14 11 8 6 6 10 12 16 19 21 24 26
4 9 7 14 14 9 8 14 16 17 20 28 10 11 24 19 29 40 62 54 51 47 46 44 43 39 35 29 25 21 16 13 9 6 3 3 6 10 13 18 21 24 26 29
2 7 9 8 12 10 17 23 22 31 38 31 20 3 9 24 28 37 47 60 53 46 42 39 36 33 31 26 22 18 14 10 6 3 3 6 10 14 18 21 23 26 28 30
7 6 6 9 5 12 13 14 17 24 27 31 34 16 22 18 28 40 51 52 51 47 42 38 34 30 27 23 19 15 11 7 4 4 8 12 16 20 23 26 28 30 33 36
7 8 2 7 8 3 7 10 12 31 9 14 21 40 45 47 45 56 52 50 48 46 42 36 31 27 22 17 13 9 5 1 5 9 14 18 22 26 28 30 34 36 39 43
17 3 3 1 5 14 10 4 5 10 4 11 29 31 39 49 41 26 47 48 50 44 37 31 26 21 16 11 6 2 3 7 10 14 18 21 23 27 30 33 37 41 43 43
5 5 5 5 2 8 9 4 4 13 3 9 28 34 42 50 17 8 44 45 45 40 34 30 25 19 14 9 4 4 5 8 11 15 20 25 29 33 35 37 39 40 43 43
2 4 9 4 7 14 16 13 2 7 1 9 31 49 49 10 12 40 50 45 41 38 34 26 20 15 9 6 6 8 9 12 16 21 26 31 34 36 39 39 42 44 46 48
13 11 7 4 0 13 6 7 5 3 11 22 39 54 46 20 20 51 50 42 37 33 28 23 18 13 9 10 10 12 15 18 22 28 34 38 41 44 47 49 50 51 53 55
6 12 7 15 10 7 6 5 11 7 9 21 31 35 38 27 40 49 47 41 38 31 24 19 15 16 17 17 19 20 21 24 29 34 38 41 43 45 49 52 53 55 55 57
10 14 6 4 9 23 44 18 10 2 6 28 40 35 34 34 47 45 39 36 32 29 26 26 29 29 28 27 26 23 23 25 28 30 35 39 42 45 48 50 54 58 60 60
11 11 11 10 19 24 39 25 24 17 16 21 36 42 41 40 44 38 32 30 30 30 31 34 35 35 34 31 26 22 21 20 23 27 32 37 41 46 49 51 53 53 52 55
25 19 16 13 21 18 13 35 40 39 37 33 37 45 46 43 37 32 27 22 27 30 34 38 37 36 33 32 30 28 23 21 25 28 32 37 41 46 49 53 54 52 53 52
Wind_Direction_500mb
291 230 225 224 225 276 342 313 238 206 222 181 222 217 232 233 215 215 214 203 211 221 224 229 235 235 228 228 228 230 228 231 228 225 228 230 237 239 245 247 248 246 248 254
306 255 245 271 214 233 265 266 289 255 241 213 228 233 239 213 219 210 211 206 190 193 216 229 240 235 230 225 228 229 231 232 232 232 238 240 242 244 247 250 252 254 253 253
221 246 228 243 249 219 233 237 245 303 321 247 350 246 223 241 236 229 232 223 209 200 197 222 250 221 224 224 225 229 229 232 233 237 242 244 245 250 251 251 256 255 262 262
250 247 258 256 269 246 237 204 215 261 324 237 170 261 209 210 228 226 228 235 232 212 221 240 268 227 218 221 224 227 231 236 237 241 246 249 251 253 258 263 265 269 270 271
248 223 225 244 240 250 239 202 202 228 211 333 234 255 239 184 224 222 217 221 233 238 235 231 243 230 215 217 218 218 220 228 229 233 243 246 250 256 264 268 268 269 274 276
239 287 236 289 306 223 291 260 232 197 217 244 221 211 208 200 207 220 212 216 224 224 216 208 215 214 213 218 220 220 220 224 229 234 229 241 248 255 262 272 272 271 276 279
292 251 238 201 271 238 205 224 170 190 191 231 190 193 237 245 202 206 208 208 214 215 203 196 186 193 198 209 211 216 223 225 231 238 234 247 252 257 262 268 271 269 271 275
205 310 191 188 203 223 207 233 216 183 195 229 110 221 217 224 155 195 248 228 210 194 188 183 169 167 169 174 195 208 207 211 222 224 238 246 252 263 267 271 270 273 273 274
169 262 141 203 184 186 193 209 237 308 326 175 181 239 311 145 96 103 85 181 183 182 175 170 164 162 164 165 167 175 187 194 216 225 241 251 258 260 264 266 268 271 272 273
234 261 232 48 204 224 223 141 177 221 179 222 216 222 218 177 169 136 130 124 148 168 169 162 159 155 151 154 159 156 159 172 196 212 235 243 253 265 267 267 272 278 280 279
297 207 290 27 236 192 188 240 260 216 200 185 158 239 195 199 201 172 140 137 146 150 152 156 159 159 165 169 173 179 181 194 205 203 226 250 267 277 293 289 291 295 292 288
278 237 235 229 293 191 248 234 210 258 178 219 231 273 349 249 181 136 121 125 132 141 140 140 141 141 142 144 146 149 149 155 174 178 188 207 213 214 232 263 274 284 297 304
1 273 344 325 3 59 235 201 223 252 272 236 189 243 346 114 100 115 123 128 131 130 129 128 129 128 128 129 127 125 125 135 151 152 166 172 199 240 268 281 288 293 296 299
323 244 187 211 221 251 284 266 335 252 234 231 264 159 159 153 131 125 126 133 134 132 130 129 128 126 124 121 122 125 130 134 141 152 190 207 245 272 282 290 295 303 308 310
293 266 225 243 249 256 257 271 275 257 260 220 213 227 187 173 153 146 143 140 135 132 132 131 128 125 122 124 126 126 128 131 139 161 198 285 300 302 313 316 318 321 320 320
270 280 308 277 245 250 282 282 273 260 251 253 171 169 124 115 125 134 144 147 145 140 136 133 131 132 133 134 135 134 138 147 162 210 277 312 315 314 315 318 317 316 313 311
273 336 303 268 326 324 301 243 242 261 229 188 180 175 147 132 148 156 156 156 151 149 147 144 144 146 147 148 148 151 158 173 215 293 322 326 321 319 314 312 310 310 308 309
274 302 17 270 343 275 237 214 212 264 178 157 116 149 159 156 159 165 167 164 160 157 155 156 156 155 155 156 154 147 142 58 337 330 322 315 311 309 308 309 309 308 308 308
209 281 280 274 260 294 304 12 354 334 75 337 140 136 134 136 142 165 178 176 167 163 162 162 163 162 162 160 146 102 338 326 319 311 310 309 304 306 310 308 307 305 305 305
154 5 238 21 165 240 267 6 101 314 82 339 138 137 134 143 157 218 178 173 169 170 171 169 166 168 172 176 196 257 290 303 313 313 310 312 314 313 311 310 309 309 310 310
46 358 221 192 259 283 266 300 130 18 330 143 137 140 144 105 142 170 171 172 175 174 172 171 174 182 198 240 279 301 312 320 319 316 317 319 318 316 314 315 313 312 310 309
176 153 206 79 59 282 255 332 52 258 315 152 139 150 150 130 146 167 170 172 176 178 181 189 202 217 245 277 298 301 305 311 318 322 321 320 321 321 321 321 320 320 318 316
261 193 184 193 222 249 298 292 323 340 193 184 170 171 176 155 151 163 169 179 184 190 200 216 242 263 272 279 282 285 297 310 317 319 320 321 321 322 322 321 320 320 321 320
250 199 208 72 250 248 259 260 281 300 204 199 203 194 178 167 162 168 175 185 200 216 231 242 250 256 262 265 265 275 294 309 315 319 317 318 320 321 321 321 321 321 321 319
216 149 191 265 274 277 273 235 208 183 165 161 180 185 188 187 179 184 194 211 227 237 242 249 253 256 259 254 253 266 279 297 313 316 318 321 322 323 324 323 321 319 319 318
194 199 194 219 222 196 232 214 199 199 187 184 183 186 189 189 198 201 206 220 233 241 249 250 252 253 249 239 242 252 268 291 302 305 311 316 318 317 316 317 317 318 318 319
Wind_Speed_850mb
7 11 28 26 21 19 5 9 25 6 13 13 31 21 34 28 43 48 49 34 25 41 52 53 51 55 76 72 70 67 62 57 53 51 50 48 52 49 48 47 44 42 40 38
8 25 19 14 17 25 26 11 12 12 8 10 7 28 28 31 35 53 56 45 30 33 37 38 51 56 63 78 75 68 70 66 60 57 52 53 52 52 49 47 47 46 45 42
15 11 20 24 28 23 29 35 8 6 9 6 4 13 18 20 41 44 58 53 42 33 24 22 28 58 60 65 77 77 69 64 64 62 57 58 59 60 57 54 54 51 48 45
16 24 30 24 22 27 26 17 19 20 5 7 9 19 22 31 26 37 57 60 58 46 36 25 19 40 64 61 60 69 74 67 63 65 65 63 60 63 65 60 56 53 46 47
13 6 12 23 37 21 13 12 27 21 7 7 9 5 11 22 40 44 37 52 74 73 66 45 27 27 57 67 63 57 62 64 61 60 57 58 58 54 54 59 63 60 54 52
13 8 6 5 15 33 10 16 5 11 15 13 29 17 9 13 19 25 26 51 68 56 48 42 33 29 45 58 59 59 59 58 54 55 46 47 49 52 53 49 47 50 53 54
8 32 17 14 7 9 21 11 11 16 15 29 27 13 29 4 6 10 28 48 58 60 56 51 44 34 37 48 52 50 47 43 45 44 37 42 47 50 51 53 54 56 60 62
6 12 22 21 26 7 22 16 4 11 20 38 12 23 22 14 13 6 17 36 44 59 62 56 50 45 36 32 31 32 27 24 27 30 33 37 40 44 48 51 53 52 50 52
7 12 2 15 12 22 11 22 30 7 4 9 11 29 12 5 7 10 8 27 47 61 60 60 54 50 52 44 35 27 22 22 24 24 27 30 33 40 46 49 53 56 57 58
8 10 11 2 25 27 14 13 11 13 6 9 9 17 24 13 12 8 12 25 39 63 66 59 56 55 51 45 42 36 31 20 15 15 16 17 19 24 26 29 35 41 45 47
4 4 7 4 9 15 10 25 12 8 8 8 6 10 5 13 12 21 18 36 46 52 55 52 46 38 33 29 27 24 22 24 21 16 13 13 12 13 18 20 21 21 22 25
8 7 8 18 4 16 12 28 29 9 9 6 3 8 8 14 12 23 32 42 49 58 59 55 50 46 41 36 33 30 26 19 18 14 11 13 14 12 10 10 11 13 17 22
13 4 6 13 3 3 10 10 10 19 8 8 13 9 12 16 23 32 40 52 58 59 60 56 53 50 47 42 36 30 28 23 20 17 12 9 7 7 9 12 15 17 20 25
21 7 13 10 8 3 7 5 2 5 14 12 8 9 4 10 28 32 42 53 57 55 54 52 48 45 41 36 31 26 23 19 14 11 8 6 6 10 12 16 19 21 24 26
4 9 7 14 14 9 8 14 16 17 20 28 10 11 24 19 29 40 62 54 51 47 46 44 43 39 35 29 25 21 16 13 9 6 3 3 6 10 13 18 21 24 26 29
2 7 9 8 12 10 17 23 22 31 38 31 20 3 9 24 28 37 47 60 53 46 42 39 36 33 31 26 22 18 14 10 6 3 3 6 10 14 18 21 23 26 28 30
7 6 6 9 5 12 13 14 17 24 27 31 34 16 22 18 28 40 51 52 51 47 42 38 34 30 27 23 19 15 11 7 4 4 8 12 16 20 23 26 28 30 33 36
7 8 2 7 8 3 7 10 12 31 9 14 21 40 45 47 45 56 52 50 48 46 42 36 31 27 22 17 13 9 5 1 5 9 14 18 22 26 28 30 34 36 39 43
17 3 3 1 5 14 10 4 5 10 4 11 29 31 39 49 41 26 47 48 50 44 37 31 26 21 16 11 6 2 3 7 10 14 18 21 23 27 30 33 37 41 43 43
5 5 5 5 2 8 9 4 4 13 3 9 28 34 42 50 17 8 44 45 45 40 34 30 25 19 14 9 4 4 5 8 11 15 20 25 29 33 35 37 39 40 43 43
2 4 9 4 7 14 16 13 2 7 1 9 31 49 49 10 12 40 50 45 41 38 34 26 20 15 9 6 6 8 9 12 16 21 26 31 34 36 39 39 42 44 46 48
13 11 7 4 0 13 6 7 5 3 11 22 39 54 46 20 20 51 50 42 37 33 28 23 18 13 9 10 10 12 15 18 22 28 34 38 41 44 47 49 50 51 53 55
6 12 7 15 10 7 6 5 11 7 9 21 31 35 38 27 40 49 47 41 38 31 24 19 15 16 17 17 19 20 21 24 29 34 38 41 43 45 49 52 53 55 55 57
10 14 6 4 9 23 44 18 10 2 6 28 40 35 34 34 47 45 39 36 32 29 26 26 29 29 28 27 26 23 23 25 28 30 35 39 42 45 48 50 54 58 60 60
11 11 11 10 19 24 39 25 24 17 16 21 36 42 41 40 44 38 32 30 30 30 31 34 35 35 34 31 26 22 21 20 23 27 32 37 41 46 49 51 53 53 52 55
25 19 16 13 21 18 13 35 40 39 37 33 37 45 46 43 37 32 27 22 27 30 34 38 37 36 33 32 30 28 23 21 25 28 32 37 41 46 49 53 54 52 53 52
Wind_Direction_850mb
291 230 225 224 225 276 342 313 238 206 222 181 222 217 232 233 215 215 214 203 211 221 224 229 235 235 228 228 228 230 228 231 228 225 228 230 237 239 245 247 248 246 248 254
306 255 245 271 214 233 265 266 289 255 241 213 228 233 239 213 219 210 211 206 190 193 216 229 240 235 230 225 228 229 231 232 232 232 238 240 242 244 247 250 252 254 253 253
221 246 228 243 249 219 233 237 245 303 321 247 350 246 223 241 236 229 232 223 209 200 197 222 250 221 224 224 225 229 229 232 233 237 242 244 245 250 251 251 256 255 262 262
250 247 258 256 269 246 237 204 215 261 324 237 170 261 209 210 228 226 228 235 232 212 221 240 268 227 218 221 224 227 231 236 237 241 246 249 251 253 258 263 265 269 270 271
248 223 225 244 240 250 239 202 202 228 211 333 234 255 239 184 224 222 217 221 233 238 235 231 243 230 215 217 218 218 220 228 229 233 243 246 250 256 264 268 268 269 274 276
239 287 236 289 306 223 291 260 232 197 217 244 221 211 208 200 207 220 212 216 224 224 216 208 215 214 213 218 220 220 220 224 229 234 229 241 248 255 262 272 272 271 276 279
292 251 238 201 271 238 205 224 170 190 191 231 190 193 237 245 202 206 208 208 214 215 203 196 186 193 198 209 211 216 223 225 231 238 234 247 252 257 262 268 271 269 271 275
205 310 191 188 203 223 207 233 216 183 195 229 110 221 217 224 155 195 248 228 210 194 188 183 169 167 169 174 195 208 207 211 222 224 238 246 252 263 267 271 270 273 273 274
169 262 141 203 184 186 193 209 237 308 326 175 181 239 311 145 96 103 85 181 183 182 175 170 164 162 164 165 167 175 187 194 216 225 241 251 258 260 264 266 268 271 272 273
234 261 232 48 204 224 223 141 177 221 179 222 216 222 218 177 169 136 130 124 148 168 169 162 159 155 151 154 159 156 159 172 196 212 235 243 253 265 267 267 272 278 280 279
297 207 290 27 236 192 188 240 260 216 200 185 158 239 195 199 201 172 140 137 146 150 152 156 159 159 165 169 173 179 181 194 205 203 226 250 267 277 293 289 291 295 292 288
278 237 235 229 293 191 248 234 210 258 178 219 231 273 349 249 181 136 121 125 132 141 140 140 141 141 142 144 146 149 149 155 174 178 188 207 213 214 232 263 274 284 297 304
1 273 344 325 3 59 235 201 223 252 272 236 189 243 346 114 100 115 123 128 131 130 129 128 129 128 128 129 127 125 125 135 151 152 166 172 199 240 268 281 288 293 296 299
323 244 187 211 221 251 284 266 335 252 234 231 264 159 159 153 131 125 126 133 134 132 130 129 128 126 124 121 122 125 130 134 141 152 190 207 245 272 282 290 295 303 308 310
293 266 225 243 249 256 257 271 275 257 260 220 213 227 187 173 153 146 143 140 135 132 132 131 128 125 122 124 126 126 128 131 139 161 198 285 300 302 313 316 318 321 320 320
270 280 308 277 245 250 282 282 273 260 251 253 171 169 124 115 125 134 144 147 145 140 136 133 131 132 133 134 135 134 138 147 162 210 277 312 315 314 315 318 317 316 313 311
273 336 303 268 326 324 301 243 242 261 229 188 180 175 147 132 148 156 156 156 151 149 147 144 144 146 147 148 148 151 158 173 215 293 322 326 321 319 314 312 310 310 308 309
274 302 17 270 343 275 237 214 212 264 178 157 116 149 159 156 159 165 167 164 160 157 155 156 156 155 155 156 154 147 142 58 337 330 322 315 311 309 308 309 309 308 308 308
209 281 280 274 260 294 304 12 354 334 75 337 140 136 134 136 142 165 178 176 167 163 162 162 163 162 162 160 146 102 338 326 319 311 310 309 304 306 310 308 307 305 305 305
154 5 238 21 165 240 267 6 101 314 82 339 138 137 134 143 157 218 178 173 169 170 171 169 166 168 172 176 196 257 290 303 313 313 310 312 314 313 311 310 309 309 310 310
46 358 221 192 259 283 266 300 130 18 330 143 137 140 144 105 142 170 171 172 175 174 172 171 174 182 198 240 279 301 312 320 319 316 317 319 318 316 314 315 313 312 310 309
176 153 206 79 59 282 255 332 52 258 315 152 139 150 150 130 146 167 170 172 176 178 181 189 202 217 245 277 298 301 305 311 318 322 321 320 321 321 321 321 320 320 318 316
261 193 184 193 222 249 298 292 323 340 193 184 170 171 176 155 151 163 169 179 184 190 200 216 242 263 272 279 282 285 297 310 317 319 320 321 321 322 322 321 320 320 321 320
250 199 208 72 250 248 259 260 281 300 204 199 203 194 178 167 162 168 175 185 200 216 231 242 250 256 262 265 265 275 294 309 315 319 317 318 320 321 321 321 321 321 321 319
216 149 191 265 274 277 273 235 208 183 165 161 180 185 188 187 179 184 194 211 227 237 242 249 253 256 259 254 253 266 279 297 313 316 318 321 322 323 324 323 321 319 319 318
194 199 194 219 222 196 232 214 199 199 187 184 183 186 189 189 198 201 206 220 233 241 249 250 252 253 249 239 242 252 268 291 302 305 311 316 318 317 316 317 317 318 318 319